Location: Unspecified
(0.0000°N, 0.0000°E)
Time: 11:42:35
(UTC+00:00)

A-11 Canister half - Pass Details

Date: 05 August 2021
Orbit: 1515 x 1685 km, 47.2° (Epoch: 27 September)

Event Time Altitude Azimuth Distance (km) Brightness Sun altitude
Rises 12:59:49 0° 226° (SW) 4,657 11.5 68.6°
Reaches altitude 10° 13:02:51 10° 228° (SW) 3,680 11.1 68.1°
Maximum altitude 13:12:02 68° 309° (NW) 1,637 12.9 66.6°
Drops below altitude 10° 13:21:29 10° 31° (NNE) 3,771 11.3 64.9°
Sets 13:24:39 0° 34° (NE) 4,778 11.6 64.4°
